Prague, Czech Republic

12:59 PM CET on December 13, 2017 (GMT +0100)
Ruzyne

Weather History for LKPR - November, 2014

Change the Weather History Date:

Saturday, November 15, 2014

  Actual Average Record
Temperature  
Mean Temperature 51 °F -  
Max Temperature 53 °F 39 °F 59 °F (2006)
Min Temperature 49 °F 29 °F 21 °F (2011)
Degree Days  
Heating Degree Days 14    
Growing Degree Days 1 (Base 50)    
Moisture  
Dew Point 46 °F    
Average Humidity 79    
Maximum Humidity 87    
Minimum Humidity 66    
Precipitation  
Precipitation 0.00 in 0.04 in - ()
Sea Level Pressure  
Sea Level Pressure 29.72 in    
Wind  
Wind Speed 8 mph ()    
Max Wind Speed 13 mph    
Max Gust Speed -    
Visibility 6.9 miles    
Events      
Averages and records for this station are not official NWS values.
T = Trace of Precipitation, MM = Missing Value Source: Averaged Metar Reports

Daily Weather History Graph

Daily Weather History Graph

Search for Another Location

Airport or City:

Trip Planner

Search our weather history database for the weather conditions in past years. The results will help you decide how hot, cold, wet, or windy it might be!

Date:

Astronomy

Nov. 15, 2014 Rise Set
Actual Time 7:15 AM CET 4:18 PM CET
Civil Twilight 6:39 AM CET 4:54 PM CET
Nautical Twilight 6:00 AM CET 5:33 PM CET
Astronomical Twilight 5:22 AM CET 6:11 PM CET
Moon No Moon Rise 1:11 PM CET (11/15)
Length of Visible Light 10h 14m
Length of Day
9h 03m
Last Quarter, 42% of the Moon is Illuminated
Nov 15
Last Quarter
Nov 22
New
Nov 29
First Quarter
Dec 6
Full
Dec 14
Last Quarter

Hourly Weather History & Observations

Time (CET) Temp. Dew Point Humidity Pressure Visibility Wind Dir Wind Speed Gust Speed Precip Events Conditions
12:00 AM 50 °F 47 °F 85% 29.86 in 6 mi ENE 6.7 mph - -   Mist
12:00 AM 50.0 °F 46.4 °F 87% 29.83 in 5.6 mi East 6.9 mph - N/A   Overcast
12:30 AM 50.0 °F 46.4 °F 87% 29.83 in 5.6 mi East 5.8 mph - N/A   Overcast
1:00 AM 50 °F 47 °F 84% 29.83 in 6 mi East 8.9 mph - -   Mist
1:00 AM 50.0 °F 46.4 °F 87% 29.80 in 5.6 mi East 6.9 mph - N/A   Overcast
1:30 AM 50.0 °F 46.4 °F 87% 29.80 in 6.2 mi East 8.1 mph - N/A   Overcast
2:00 AM 51 °F 46 °F 78% 29.83 in 6 mi ESE 8.9 mph - -   Overcast
2:00 AM 51.8 °F 46.4 °F 82% 29.80 in 6.2 mi ESE 6.9 mph - N/A   Overcast
2:30 AM 50.0 °F 46.4 °F 87% 29.80 in 6.2 mi East 8.1 mph - N/A   Overcast
3:00 AM 50 °F 47 °F 84% 29.80 in 6 mi East 8.9 mph - -   Overcast
3:00 AM 50.0 °F 46.4 °F 87% 29.77 in 6.2 mi East 8.1 mph - N/A   Overcast
3:30 AM 50.0 °F 46.4 °F 87% 29.77 in 6.2 mi East 6.9 mph - N/A   Overcast
4:00 AM 51 °F 46 °F 77% 29.79 in 7 mi ESE 8.9 mph - -   Overcast
4:00 AM 51.8 °F 46.4 °F 82% 29.77 in 6.2 mi ESE 9.2 mph - N/A   Overcast
4:30 AM 51.8 °F 46.4 °F 82% 29.77 in 6.2 mi ESE 6.9 mph - N/A   Overcast
5:00 AM 51 °F 46 °F 77% 29.77 in 9 mi ESE 8.9 mph - -   Overcast
5:00 AM 51.8 °F 46.4 °F 82% 29.77 in 6.2 mi ESE 10.4 mph - N/A   Overcast
5:30 AM 50.0 °F 46.4 °F 87% 29.74 in 6.2 mi ESE 9.2 mph - N/A   Overcast
6:00 AM 51 °F 46 °F 77% 29.76 in 9 mi ESE 8.9 mph - -   Overcast
6:00 AM 51.8 °F 46.4 °F 82% 29.74 in 6.2 mi ESE 6.9 mph - N/A   Overcast
6:30 AM 51.8 °F 44.6 °F 76% 29.74 in 6.2 mi ESE 9.2 mph - N/A   Overcast
7:00 AM 51 °F 46 °F 75% 29.76 in 7 mi ESE 8.9 mph - -   Overcast
7:00 AM 51.8 °F 44.6 °F 76% 29.74 in 6.2 mi ESE 11.5 mph - N/A   Overcast
7:30 AM 51.8 °F 44.6 °F 76% 29.74 in 6.2 mi ESE 11.5 mph - N/A   Overcast
8:00 AM 51 °F 45 °F 73% 29.75 in 7 mi ESE 11.2 mph - -   Overcast
8:00 AM 51.8 °F 44.6 °F 76% 29.74 in 6.2 mi ESE 10.4 mph - N/A   Overcast
8:30 AM 51.8 °F 44.6 °F 76% 29.71 in 6.2 mi ESE 11.5 mph - N/A   Overcast
9:00 AM 52 °F 45 °F 69% 29.75 in 7 mi ESE 11.2 mph - -   Mostly Cloudy
9:00 AM 51.8 °F 44.6 °F 76% 29.74 in 6.2 mi SE 11.5 mph - N/A   Mostly Cloudy
9:30 AM 51.8 °F 44.6 °F 76% 29.74 in 6.2 mi ESE 12.7 mph - N/A   Mostly Cloudy
10:00 AM 52 °F 45 °F 70% 29.75 in 7 mi ESE 11.2 mph - -   Mostly Cloudy
10:00 AM 51.8 °F 44.6 °F 76% 29.74 in 6.2 mi SE 11.5 mph - N/A   Mostly Cloudy
10:30 AM 51.8 °F 46.4 °F 82% 29.74 in 6.2 mi SE 10.4 mph - N/A   Mostly Cloudy
11:00 AM 53 °F 46 °F 69% 29.74 in 9 mi SE 8.9 mph - -   Mostly Cloudy
11:00 AM 51.8 °F 46.4 °F 82% 29.74 in 6.2 mi SE 12.7 mph - N/A   Mostly Cloudy
11:30 AM 53.6 °F 44.6 °F 72% 29.71 in 6.2 mi SE 12.7 mph - N/A   Mostly Cloudy
12:00 PM 53 °F 45 °F 67% 29.73 in 12 mi ESE 13.4 mph - -   Mostly Cloudy
12:00 PM 53.6 °F 46.4 °F 77% 29.71 in 6.2 mi ESE 11.5 mph - N/A   Mostly Cloudy
12:30 PM 53.6 °F 46.4 °F 77% 29.71 in 6.2 mi SE 10.4 mph - N/A   Mostly Cloudy
1:00 PM 54 °F 46 °F 66% 29.71 in 12 mi ESE 11.2 mph - -   Mostly Cloudy
1:00 PM 53.6 °F 46.4 °F 77% 29.71 in 6.2 mi ESE 10.4 mph - N/A   Overcast
1:30 PM 53.6 °F 46.4 °F 77% 29.71 in 6.2 mi SE 11.5 mph - N/A   Mostly Cloudy
2:00 PM 53 °F 46 °F 68% 29.71 in 12 mi ESE 11.2 mph - -   Mostly Cloudy
2:00 PM 53.6 °F 46.4 °F 77% 29.71 in 6.2 mi ESE 10.4 mph - N/A   Mostly Cloudy
2:30 PM 53.6 °F 46.4 °F 77% 29.68 in 6.2 mi ESE 10.4 mph - N/A   Mostly Cloudy
3:00 PM 53 °F 46 °F 70% 29.70 in 9 mi ESE 8.9 mph - -   Mostly Cloudy
3:00 PM 53.6 °F 46.4 °F 77% 29.68 in 6.2 mi ESE 9.2 mph - N/A   Mostly Cloudy
3:30 PM 51.8 °F 46.4 °F 82% 29.68 in 6.2 mi ESE 9.2 mph - N/A   Mostly Cloudy
4:00 PM 52 °F 46 °F 72% 29.70 in 7 mi ESE 11.2 mph - -   Mostly Cloudy
4:00 PM 51.8 °F 46.4 °F 82% 29.68 in 6.2 mi ESE 10.4 mph - N/A   Mostly Cloudy
4:30 PM 51.8 °F 46.4 °F 82% 29.68 in 6.2 mi ESE 10.4 mph - N/A   Mostly Cloudy
5:00 PM 52 °F 46 °F 71% 29.70 in 7 mi ESE 11.2 mph - -   Mostly Cloudy
5:00 PM 51.8 °F 46.4 °F 82% 29.68 in 6.2 mi ESE 11.5 mph - N/A   Mostly Cloudy
5:30 PM 51.8 °F 44.6 °F 76% 29.68 in 6.2 mi ESE 11.5 mph - N/A   Mostly Cloudy
6:00 PM 51 °F 45 °F 74% 29.69 in 9 mi ESE 11.2 mph - -   Mostly Cloudy
6:00 PM 50.0 °F 44.6 °F 82% 29.68 in 6.2 mi ESE 10.4 mph - N/A   Mostly Cloudy
6:30 PM 50.0 °F 44.6 °F 82% 29.68 in 6.2 mi ESE 8.1 mph - N/A   Mostly Cloudy
7:00 PM 51 °F 46 °F 75% 29.69 in 9 mi ESE 8.9 mph - -   Mostly Cloudy
7:00 PM 50.0 °F 46.4 °F 87% 29.68 in 6.2 mi ESE 8.1 mph - N/A   Mostly Cloudy
7:30 PM 50.0 °F 44.6 °F 82% 29.65 in 6.2 mi ESE 9.2 mph - N/A   Mostly Cloudy
8:00 PM 51 °F 46 °F 75% 29.67 in 9 mi ESE 8.9 mph - -   Overcast
8:00 PM 50.0 °F 46.4 °F 87% 29.65 in 6.2 mi ESE 8.1 mph - N/A   Overcast
8:30 PM 50.0 °F 46.4 °F 87% 29.65 in 6.2 mi East 6.9 mph - N/A   Overcast
9:00 PM 50 °F 46 °F 79% 29.66 in 9 mi East 8.9 mph - -   Overcast
9:00 PM 50.0 °F 44.6 °F 82% 29.65 in 6.2 mi East 8.1 mph - N/A   Overcast
9:30 PM 50.0 °F 44.6 °F 82% 29.65 in 6.2 mi ESE 10.4 mph - N/A   Overcast
10:00 PM 50 °F 45 °F 78% 29.65 in 9 mi ESE 8.9 mph - -   Overcast
10:00 PM 50.0 °F 44.6 °F 82% 29.62 in 6.2 mi ESE 8.1 mph - N/A   Overcast
10:30 PM 50.0 °F 44.6 °F 82% 29.62 in 6.2 mi SE 8.1 mph - N/A   Overcast
11:00 PM 50 °F 45 °F 78% 29.64 in 9 mi ESE 8.9 mph - -   Overcast
11:00 PM 50.0 °F 44.6 °F 82% 29.62 in 6.2 mi ESE 9.2 mph - N/A   Overcast
11:30 PM 50.0 °F 44.6 °F 82% 29.59 in 6.2 mi ESE 9.2 mph - N/A   Overcast